[[{"header":{"parameterUnit":"m.s-1","parameterCategory":1,"la1":30.2991,"la2":30.254,"lo1":-89.0895,"lo2":-89.0444,"dy":0.0017,"dx":0.0017,"nx":28,"ny":28,"refTime":"2024-03-01T09:00:00:Z","depth":0,"parameterNumber":2,"parameterNumberName":"U-component_of_WINDS"},"data":[0,0,0,0,0,0,0,0,0,0,0,0,0,0,0,0,0,0,0,0,0,0,0,0,0,0,0,0,0,0,0,0,0,0,0,0,0,0,0,0,0,0,0,0,0,0,0,0,0,0,0,0,0,0,0,0,0,0,-0.8919,-0.8919,0,-0.8858,-0.8857,-0.8857,-0.8828,-0.8828,-0.8828,-0.8828,-0.8762,-0.8761,-0.8759,0,0,0,0,0,0,0,0,0,0,0,0,0,-0.9008,-0.9007,-0.8919,-0.8919,-0.8918,-0.8858,-0.8857,-0.8856,-0.8828,-0.8828,-0.8828,-0.8828,-0.8763,-0.8761,-0.8759,0,0,0,0,0,0,0,0,0,0,0,0,0,-0.896,-0.9006,-0.892,-0.8896,-0.8894,-0.8858,-0.8857,-0.8856,-0.8828,-0.8828,-0.8828,-0.8828,-0.8764,-0.8761,-0.8758,-0.8741,0,0,-0.875,-0.8749,0,0,0,0,0,0,0,0,-0.8963,-0.8957,-0.8901,-0.8898,-0.8895,-0.8851,-0.8864,-0.8817,-0.8828,-0.8853,-0.8828,-0.8828,-0.8792,-0.8787,-0.8775,-0.8738,-0.8735,-0.875,-0.8748,-0.8747,-0.8747,0,0,0,0,0,0,0,-0.8966,-0.896,-0.8895,-0.89,-0.8896,-0.8888,-0.8881,-0.8855,-0.8822,-0.885,-0.8848,-0.8842,-0.879,-0.8777,-0.8773,-0.8734,-0.875,-0.8748,-0.8746,-0.8745,-0.8676,-0.8676,0,0,0,0,0,0,-0.8974,-0.8963,-0.8897,-0.8893,-0.893,-0.8886,-0.8879,-0.8865,-0.8823,-0.8816,-0.8842,-0.884,-0.8782,-0.8776,-0.8771,-0.8745,-0.8747,-0.8745,-0.8743,-0.8676,-0.8676,-0.8676,0,0,0,0,0,0,-0.8976,-0.8968,-0.8899,-0.8927,-0.8918,-0.8885,-0.8869,-0.8863,-0.8851,-0.8816,-0.881,-0.8835,-0.8782,-0.8774,-0.8748,-0.8743,-0.8744,-0.8741,-0.8677,-0.8676,-0.8676,-0.8696,0,0,0,0,0,0,-0.8979,-0.8969,-0.8963,-0.8927,-0.8917,-0.8879,-0.8869,-0.8862,-0.8847,-0.8845,-0.8808,-0.8802,-0.8781,-0.8752,-0.8745,-0.8739,-0.8739,-0.8677,-0.8677,-0.8676,-0.8696,-0.8696,-0.8697,0,0,0,0,0,-0.8982,-0.8971,-0.8963,-0.8955,-0.8908,-0.8879,-0.8873,-0.885,-0.8847,-0.8839,-0.8816,-0.8803,-0.8745,-0.875,-0.8742,-0.8735,-0.8677,-0.8677,-0.8676,-0.8695,-0.8696,-0.8697,0,0,0,0,0,0,-0.9007,-0.8966,-0.8957,-0.8934,-0.891,-0.8874,-0.8865,-0.8852,-0.8827,-0.8826,-0.8798,-0.879,-0.8765,-0.8747,-0.8754,-0.8714,-0.871,-0.8707,-0.8727,-0.8727,-0.8728,-0.8732,-0.8737,0,0,0,0,0,-0.901,-0.8991,-0.8956,-0.8939,-0.8928,-0.8898,-0.8885,-0.8869,-0.8842,-0.8832,-0.8807,-0.8781,-0.8756,-0.8741,-0.8717,-0.8693,-0.8683,-0.8684,-0.8685,-0.8685,-0.8684,-0.8668,-0.8667,-0.8674,-0.8674,-0.8674,0,0,-0.9016,-0.8991,-0.8981,-0.8944,-0.8923,-0.8902,-0.889,-0.8869,-0.8852,-0.8828,-0.8802,-0.8782,-0.8751,-0.8726,-0.8713,-0.871,-0.8679,-0.8685,-0.8686,-0.8683,-0.8667,-0.8666,-0.8666,-0.8674,-0.8674,-0.8674,0,0,-0.9016,-0.8996,-0.8979,-0.8959,-0.8928,-0.8908,-0.8904,-0.8869,-0.8856,-0.8829,-0.881,-0.8789,-0.8748,-0.8726,-0.871,-0.8699,-0.8685,-0.8692,-0.8695,-0.868,-0.8679,-0.8679,-0.8673,-0.8672,-0.8691,-0.8691,-0.8691,0,-0.9027,-0.8996,-0.8972,-0.8951,-0.8935,-0.8912,-0.8894,-0.8875,-0.8838,-0.8826,-0.8823,-0.877,-0.8748,-0.8715,-0.8713,-0.8701,-0.8694,-0.8696,-0.8682,-0.8681,-0.868,-0.8674,-0.8672,-0.8691,-0.8691,-0.8691,-0.8691,0,-0.901,-0.8988,-0.8978,-0.8943,-0.8925,-0.8906,-0.8878,-0.8862,-0.8848,-0.8828,-0.8799,-0.8771,-0.874,-0.8731,-0.8717,-0.8696,-0.8695,-0.8687,-0.8682,-0.868,-0.8675,-0.8672,-0.8693,-0.8692,-0.8692,-0.8692,0,0,-0.9024,-0.8975,-0.8972,-0.8955,-0.8918,-0.89,-0.8879,-0.8849,-0.8835,-0.881,-0.879,-0.8755,-0.8747,-0.8728,-0.8711,-0.8698,-0.8689,-0.8691,-0.869,-0.8691,-0.8662,-0.8668,-0.8666,-0.868,-0.8679,-0.8679,-0.8665,0,-0.9018,-0.898,-0.8957,-0.8928,-0.8907,-0.8884,-0.8865,-0.884,-0.882,-0.8798,-0.8776,-0.8751,-0.8743,-0.8732,-0.8718,-0.8693,-0.8683,-0.8694,-0.866,-0.8659,-0.8667,-0.8663,-0.8669,-0.8657,-0.8662,-0.8662,-0.8662,0,-0.9006,-0.8981,-0.895,-0.8914,-0.8904,-0.8888,-0.8857,-0.8837,-0.8807,-0.8793,-0.8772,-0.8754,-0.8729,-0.8726,-0.869,-0.8698,-0.8682,-0.8668,-0.8667,-0.8662,-0.866,-0.8657,-0.8653,-0.865,-0.8658,-0.8659,-0.8659,0,-0.9018,-0.8977,-0.8952,-0.8938,-0.8896,-0.8885,-0.8867,-0.8837,-0.882,-0.8792,-0.878,-0.8751,-0.8734,-0.8711,-0.8685,-0.8685,-0.865,-0.8646,-0.8637,-0.8638,-0.863,-0.8631,-0.8622,-0.8622,-0.8622,-0.8622,-0.8622,0,-0.9013,-0.8995,-0.8957,-0.8941,-0.8919,-0.8892,-0.887,-0.885,-0.8823,-0.8803,-0.8781,-0.8762,-0.8729,-0.8705,-0.8685,-0.8657,-0.865,-0.8637,-0.8631,-0.8638,-0.864,-0.8627,-0.8627,-0.8622,-0.8622,-0.8622,-0.8622,0,-0.9023,-0.8997,-0.8968,-0.8931,-0.8921,-0.8906,-0.8873,-0.8856,-0.8835,-0.8808,-0.8801,-0.8767,-0.8737,-0.8709,-0.867,-0.8656,-0.8627,-0.8621,-0.8638,-0.8635,-0.8627,-0.8627,-0.8609,-0.8604,-0.8609,-0.8609,-0.8609,0,-0.9021,-0.9006,-0.8967,-0.8951,-0.8934,-0.891,-0.8891,-0.8864,-0.8846,-0.8809,-0.8797,-0.8766,-0.874,-0.8693,-0.8664,-0.8633,-0.8625,-0.8621,-0.862,-0.8627,-0.8623,-0.8624,-0.8621,-0.8621,-0.8621,-0.8621,-0.8621,0,-0.902,-0.9007,-0.8983,-0.8953,-0.8932,-0.8908,-0.8882,-0.887,-0.8838,-0.8818,-0.8788,-0.8767,-0.8727,-0.8695,-0.8661,-0.864,-0.8625,-0.8622,-0.8618,-0.8624,-0.8634,-0.8627,-0.8638,-0.8622,-0.8622,-0.8622,-0.8622,-0.8622,-0.9023,-0.9008,-0.8977,-0.895,-0.8927,-0.8904,-0.8886,-0.8862,-0.8836,-0.8802,-0.8786,-0.8755,-0.8723,-0.8676,-0.8655,-0.8629,-0.8626,-0.8621,-0.8619,-0.8618,-0.8618,-0.8639,-0.8623,-0.8623,-0.8623,-0.8623,-0.8623,0,-0.9019,-0.8998,-0.8973,-0.8938,-0.8916,-0.8904,-0.8874,-0.8856,-0.8829,-0.8801,-0.8776,-0.874,-0.8709,-0.8677,-0.8644,-0.863,-0.8621,-0.8622,-0.8622,-0.8617,-0.8624,-0.863,-0.8629,-0.8629,-0.8629,-0.8629,-0.8629,-0.8629,-0.9015,-0.8988,-0.8972,-0.8933,-0.8911,-0.8881,-0.8865,-0.8842,-0.8819,-0.8781,-0.8755,-0.8735,-0.8704,-0.8669,-0.8639,-0.863,-0.8619,-0.8621,-0.861,-0.8617,-0.8617,-0.8617,-0.8622,-0.8619,-0.8619,-0.8605,-0.8604,-0.8604]},{"header":{"parameterUnit":"m.s-1","parameterCategory":1,"la1":30.2991,"la2":30.254,"lo1":-89.0895,"lo2":-89.0444,"dy":0.0017,"dx":0.0017,"nx":28,"ny":28,"refTime":"2024-03-01T09:00:00:Z","depth":0,"parameterNumber":3,"parameterNumberName":"V-component_of_WINDS"},"data":[0,0,0,0,0,0,0,0,0,0,0,0,0,0,0,0,0,0,0,0,0,0,0,0,0,0,0,0,0,0,0,0,0,0,0,0,0,0,0,0,0,0,0,0,0,0,0,0,0,0,0,0,0,0,0,0,0,0,1.1107,1.1108,0,1.1262,1.1263,1.1265,1.1288,1.1286,1.1285,1.1284,1.1445,1.145,1.1456,0,0,0,0,0,0,0,0,0,0,0,0,0,1.0833,1.0838,1.1106,1.1108,1.111,1.1261,1.1263,1.1266,1.1288,1.1286,1.1285,1.1283,1.1443,1.145,1.1456,0,0,0,0,0,0,0,0,0,0,0,0,0,1.0967,1.084,1.1106,1.114,1.1144,1.1261,1.1263,1.1266,1.1288,1.1286,1.1284,1.1282,1.1441,1.1449,1.1457,1.1552,0,0,1.1483,1.1487,0,0,0,0,0,0,0,0,1.0959,1.0977,1.1133,1.1138,1.1143,1.1253,1.1226,1.1362,1.1289,1.1234,1.1284,1.1281,1.1383,1.1396,1.143,1.156,1.1567,1.1484,1.1489,1.1493,1.1495,0,0,0,0,0,0,0,1.095,1.097,1.1168,1.1135,1.1141,1.1148,1.1165,1.1252,1.1319,1.1238,1.124,1.1258,1.1385,1.1422,1.1434,1.1569,1.1484,1.1491,1.1496,1.15,1.1787,1.1789,0,0,0,0,0,0,1.0934,1.0962,1.1163,1.1172,1.1044,1.1155,1.1173,1.122,1.1318,1.133,1.126,1.1259,1.1408,1.1424,1.144,1.1559,1.1492,1.15,1.1505,1.1784,1.1787,1.179,0,0,0,0,0,0,1.0928,1.0952,1.1157,1.1068,1.1095,1.1162,1.1214,1.1224,1.126,1.1334,1.1346,1.1285,1.1407,1.1428,1.1524,1.1564,1.1504,1.1512,1.1781,1.1785,1.1789,1.1796,0,0,0,0,0,0,1.092,1.0949,1.0985,1.1069,1.1099,1.1238,1.1216,1.1229,1.1275,1.1275,1.136,1.1373,1.1407,1.1512,1.1533,1.1575,1.1518,1.1778,1.1783,1.1787,1.1793,1.18,1.1806,0,0,0,0,0,1.091,1.0981,1.0987,1.1011,1.1145,1.124,1.1258,1.1295,1.1278,1.1315,1.1363,1.137,1.1556,1.1521,1.1545,1.1591,1.1775,1.1781,1.1787,1.179,1.1799,1.1806,0,0,0,0,0,0,1.0901,1.0993,1.1,1.11,1.1162,1.1244,1.1292,1.1303,1.1372,1.1369,1.1414,1.1433,1.1528,1.1569,1.1528,1.1689,1.1665,1.1675,1.1659,1.1667,1.1674,1.1663,1.1525,0,0,0,0,0,1.0911,1.0979,1.1056,1.1136,1.1167,1.1224,1.1267,1.129,1.1357,1.1383,1.1438,1.1503,1.1577,1.1624,1.1696,1.1798,1.1819,1.1842,1.1848,1.1853,1.1863,1.1922,1.1934,1.1809,1.1809,1.1809,0,0,1.0931,1.099,1.103,1.1136,1.1187,1.1258,1.1246,1.1321,1.1375,1.1395,1.149,1.1532,1.1608,1.1709,1.1756,1.1746,1.1902,1.1861,1.1864,1.1871,1.1929,1.1941,1.1952,1.1813,1.1812,1.1811,0,0,1.1005,1.1055,1.1129,1.1181,1.1258,1.1295,1.1313,1.1394,1.1423,1.1518,1.1535,1.16,1.1725,1.1779,1.1823,1.1919,1.1929,1.1941,1.1976,1.2034,1.2044,1.2053,1.2089,1.2101,1.195,1.195,1.195,0,1.1022,1.1128,1.1166,1.1241,1.1288,1.1309,1.1385,1.1434,1.153,1.1563,1.155,1.1709,1.1761,1.1876,1.1899,1.1933,1.1956,1.1932,1.2039,1.2048,1.2057,1.2092,1.2106,1.1951,1.1951,1.1951,1.195,0,1.1146,1.1219,1.127,1.1363,1.1415,1.1491,1.1541,1.159,1.1609,1.1649,1.1747,1.181,1.1896,1.1925,1.1944,1.2043,1.2034,1.203,1.2007,1.207,1.2103,1.2117,1.1952,1.1952,1.1952,1.1951,0,0,1.1218,1.1332,1.135,1.1393,1.148,1.1539,1.1616,1.1699,1.1741,1.1807,1.1874,1.198,1.1977,1.2026,1.2052,1.2102,1.2177,1.2092,1.2095,1.2107,1.2292,1.2296,1.2311,1.2184,1.2186,1.2188,1.2286,0,1.1304,1.1441,1.1478,1.1595,1.1665,1.1686,1.1754,1.1815,1.1854,1.192,1.1964,1.2039,1.2028,1.2058,1.2109,1.2157,1.2215,1.215,1.2248,1.2251,1.223,1.2328,1.2333,1.2422,1.2299,1.2301,1.2303,0,1.1422,1.1491,1.1615,1.1695,1.1725,1.1785,1.1866,1.1928,1.1999,1.2024,1.208,1.2101,1.2184,1.2155,1.2271,1.2226,1.2268,1.2298,1.2303,1.2315,1.2282,1.2344,1.2451,1.2465,1.2324,1.2322,1.2321,0,1.1466,1.1589,1.168,1.1716,1.181,1.1852,1.1894,1.1962,1.2011,1.2081,1.2113,1.2192,1.2236,1.2297,1.2341,1.2315,1.2453,1.2428,1.2478,1.2477,1.2507,1.2505,1.2624,1.2531,1.2531,1.2531,1.2531,0,1.1559,1.1634,1.1701,1.1756,1.1842,1.1884,1.1968,1.201,1.2072,1.2137,1.216,1.2222,1.2274,1.2343,1.2377,1.2469,1.2488,1.2511,1.252,1.2511,1.2508,1.254,1.2536,1.2534,1.2534,1.2533,1.2532,0,1.1622,1.1669,1.177,1.1851,1.1873,1.1933,1.2004,1.206,1.2099,1.2182,1.2204,1.2267,1.235,1.2398,1.2502,1.2525,1.2627,1.2632,1.2603,1.2608,1.2656,1.2651,1.28,1.2823,1.2714,1.2715,1.2715,0,1.1679,1.1737,1.1825,1.1871,1.1913,1.1985,1.2035,1.2079,1.213,1.2216,1.2262,1.2345,1.2414,1.2545,1.2601,1.2681,1.2689,1.2736,1.2702,1.2691,1.2693,1.2689,1.2696,1.2742,1.2743,1.2744,1.2745,0,1.1776,1.1796,1.1866,1.1945,1.2004,1.2068,1.2132,1.2168,1.2223,1.2279,1.2364,1.2417,1.2524,1.2607,1.2692,1.2736,1.2751,1.2755,1.2771,1.2763,1.2745,1.2758,1.2621,1.2752,1.2751,1.2751,1.275,1.275,1.1839,1.1893,1.1964,1.2041,1.2094,1.2154,1.2211,1.2258,1.2329,1.2418,1.244,1.2529,1.26,1.2716,1.2762,1.2833,1.2826,1.2849,1.2855,1.286,1.2863,1.2732,1.2849,1.2849,1.2848,1.2848,1.2848,0,1.1939,1.1986,1.2057,1.2146,1.2207,1.2214,1.2286,1.2337,1.2415,1.248,1.2548,1.2646,1.2727,1.2789,1.2873,1.2918,1.2927,1.2939,1.2937,1.2947,1.2864,1.2842,1.293,1.293,1.293,1.293,1.293,1.293,1.1998,1.209,1.212,1.2239,1.2285,1.2372,1.2413,1.2469,1.2521,1.2629,1.2696,1.2736,1.2801,1.2889,1.2965,1.2981,1.3012,1.3023,1.3041,1.2962,1.2953,1.2945,1.2925,1.3029,1.3029,1.3119,1.312,1.312]}]]